GFSFLT1_prec_cthk_000.txt.gz
RH
25 27 27 25 26 27 27 28 28 30 31 32 34 35 37 39 39 42 42 43 42 44 45 46 47 47 47 48 48 48 47 46
23 26 27 26 26 26 28 28 29 30 33 35 37 38 40 43 45 47 47 48 46 48 51 52 53 55 56 54 54 55 54 53
25 26 26 25 27 28 30 32 33 34 36 38 39 41 43 45 48 51 52 51 51 56 57 59 62 63 64 65 65 62 60 58
26 28 30 31 32 33 35 36 37 38 39 42 42 44 49 51 53 55 54 56 62 66 68 71 71 71 72 71 68 67 67 67
32 33 34 36 37 39 41 42 44 46 46 47 51 51 52 55 58 60 63 66 70 73 75 77 79 77 80 81 79 76 73 69
36 38 39 40 42 43 45 48 51 54 55 54 54 58 58 63 66 68 71 74 75 75 78 84 87 86 82 81 72 69 71 71
41 43 44 46 47 48 51 54 55 56 58 60 59 57 62 65 68 70 72 73 76 81 83 86 81 79 80 71 70 69 69 69
45 47 49 51 52 55 59 59 59 60 62 64 65 63 64 67 70 71 74 75 78 79 77 83 84 82 74 74 73 70 67 65
55 56 61 61 59 61 66 68 68 67 69 69 70 69 68 69 72 76 77 79 80 82 85 85 80 81 84 79 74 70 65 62
61 63 66 67 66 68 72 70 69 68 71 73 74 73 72 72 75 79 82 82 84 87 90 86 89 83 79 76 71 65 60 56
66 66 70 71 73 72 69 69 68 69 71 71 71 72 75 78 81 85 86 90 92 93 91 92 85 80 77 73 69 61 54 49
70 71 74 72 71 69 67 67 67 66 66 67 68 70 74 79 84 85 93 95 95 96 93 84 81 79 73 66 59 54 47 41
68 69 73 70 70 69 69 69 67 64 66 64 62 69 74 75 78 88 92 94 95 89 85 85 80 74 65 57 48 42 40 37
70 72 73 71 72 70 70 70 67 65 64 63 63 69 72 76 83 88 95 94 90 87 86 83 73 61 49 39 37 32 30 31
72 75 73 74 74 77 76 71 68 65 65 65 64 69 77 88 90 94 94 90 88 88 85 72 57 41 32 29 32 35 37 37
77 76 78 78 78 75 75 73 70 67 68 70 76 81 86 94 95 93 90 89 89 80 62 44 29 27 28 35 39 38 37 37
78 82 82 81 79 81 75 74 70 70 72 79 87 91 92 94 94 90 90 85 68 45 30 27 26 29 34 37 40 41 43 43
84 80 79 80 78 79 80 73 72 79 85 91 96 97 96 93 91 91 84 64 37 28 25 26 31 35 38 43 48 50 55 66
80 80 81 81 78 76 71 77 88 88 94 96 97 94 92 92 88 83 62 35 28 24 27 34 37 37 43 50 58 68 75 79

GFSFLT1_prec_cthk_006.txt.gz
RH
23 24 26 28 31 32 34 34 34 36 38 40 42 43 44 45 46 47 48 50 52 52 51 52 53 53 53 54 54 55 55 56
25 27 29 32 35 37 38 39 40 43 44 45 46 47 47 48 49 49 51 53 54 55 56 55 56 56 56 57 59 60 61 62
29 31 36 38 41 41 44 46 48 50 49 48 49 49 50 51 53 54 54 56 57 59 60 61 61 61 61 61 62 63 64 65
33 34 37 41 41 42 44 48 52 53 52 50 49 48 49 50 52 54 55 55 57 59 62 64 65 65 65 67 67 66 65 66
36 39 40 41 42 44 45 48 51 52 53 53 53 52 53 55 56 57 58 59 60 61 63 64 67 69 71 71 70 67 64 66
43 45 47 47 48 49 53 55 56 59 61 58 55 52 50 53 56 59 60 61 61 61 63 63 65 67 69 71 73 74 73 72
57 57 55 55 56 59 58 60 65 65 68 68 61 56 55 58 61 63 63 66 68 75 69 68 71 71 72 75 81 81 83 83
64 60 60 60 63 64 68 74 77 75 79 73 67 61 58 58 60 61 63 68 70 81 74 74 77 77 83 86 89 84 89 92
60 60 64 67 70 72 73 74 73 71 68 67 62 59 59 58 58 56 55 65 70 73 74 73 79 88 88 97 91 98 98 89
59 66 67 68 69 75 77 73 68 63 58 56 56 56 55 56 54 51 50 54 62 69 78 90 92 98 97 94 93 90 87 84
64 66 68 68 68 71 71 73 68 63 60 58 55 54 53 53 51 52 57 61 69 78 89 94 97 95 93 91 88 85 81 77
65 67 70 73 73 70 67 64 62 58 56 55 54 53 52 51 55 61 65 69 76 86 83 86 88 87 85 84 81 78 75 70
71 71 72 69 64 63 61 59 58 56 53 51 51 51 53 58 61 66 71 74 75 79 82 84 78 75 73 70 66 59 53 48
70 69 67 64 61 59 56 55 54 53 53 52 52 55 55 58 62 71 73 75 78 85 81 77 75 72 64 55 47 42 37 32
70 68 67 66 64 60 55 54 56 55 53 54 54 54 60 61 68 71 78 84 89 85 80 78 70 57 48 41 33 26 24 26
73 71 72 72 62 58 54 55 55 52 52 54 56 61 67 71 76 78 87 93 86 83 79 70 60 51 34 25 26 28 30 31
78 75 69 65 59 55 53 57 53 51 57 63 65 72 80 85 89 94 93 92 90 87 72 55 40 28 25 27 31 33 35 35
71 69 67 61 55 57 57 52 51 52 59 69 77 84 86 90 88 88 89 88 83 69 51 38 27 26 28 31 35 35 36 39
66 72 63 60 64 59 53 54 54 58 61 69 80 85 91 89 85 84 88 82 64 46 37 30 27 27 29 33 34 36 42 56

GFSFLT1_prec_cthk_009.txt.gz
RH
28 31 32 36 39 42 43 45 44 46 46 46 47 46 45 44 45 45 46 47 48 49 51 52 51 52 53 53 54 54 55 55
30 31 33 38 42 44 44 46 49 50 51 51 48 49 48 46 45 46 48 49 51 51 51 53 53 53 53 54 56 57 58 58
33 35 38 42 44 45 45 49 53 55 56 54 54 53 52 50 50 49 50 52 53 54 55 57 57 56 56 56 56 58 60 60
40 42 43 45 47 50 53 53 53 54 56 59 60 57 55 53 51 48 49 52 52 53 55 57 60 61 60 60 57 54 55 56
40 42 45 49 53 54 52 54 56 56 56 56 56 57 56 56 54 50 49 54 56 57 56 57 60 64 70 71 68 64 64 64
43 46 50 57 54 55 58 60 61 60 63 62 61 60 56 51 48 46 47 50 54 55 58 59 64 67 72 80 80 73 73 71
51 53 59 60 59 61 62 64 62 63 65 64 62 61 57 51 50 49 49 50 52 55 59 62 65 69 72 87 84 73 76 82
58 59 62 64 65 65 64 64 63 62 60 60 62 60 57 54 53 52 51 49 48 47 50 55 69 72 79 84 81 84 89 94
62 64 64 68 66 63 63 63 61 60 59 57 56 57 55 53 51 48 46 44 44 46 50 60 69 74 87 78 82 90 97 97
65 66 67 67 64 62 60 59 56 53 52 52 52 51 49 46 46 46 44 44 46 52 58 65 70 78 82 93 98 98 97 94
66 67 70 67 65 62 62 62 62 60 60 55 49 45 41 41 42 45 48 53 56 60 66 72 82 86 86 88 86 86 87 86
69 72 75 70 70 68 63 63 63 60 56 52 45 40 38 40 45 47 52 56 61 67 73 79 76 76 76 78 75 73 72 69
72 75 76 75 74 70 64 63 60 57 53 51 47 41 40 42 43 45 55 64 74 76 71 71 74 78 78 74 69 65 59 53
67 71 72 74 77 78 70 66 60 56 55 52 44 40 39 43 52 59 61 74 81 83 86 87 88 83 78 72 65 57 49 45
75 76 72 73 76 71 63 53 54 54 51 48 47 49 53 62 68 70 73 82 90 92 90 87 84 76 67 62 56 47 38 31
74 79 71 70 74 61 55 53 53 52 51 53 58 63 60 67 72 78 83 92 95 92 89 86 81 73 63 52 44 35 31 27
72 73 70 71 68 67 64 61 57 53 52 54 61 68 72 82 88 88 95 97 98 96 92 85 76 57 49 41 36 30 25 24
76 76 73 69 69 73 75 66 57 56 59 67 74 82 77 84 90 94 92 93 92 86 80 68 50 44 39 33 27 24 24 26
75 71 71 77 79 76 67 67 70 74 74 78 83 80 79 81 92 91 85 82 76 67 55 49 44 39 32 28 25 23 25 30

GFSFLT1_prec_cthk_012.txt.gz
RH
31 32 34 36 41 45 49 50 48 49 50 51 50 51 52 51 50 48 47 46 45 45 44 46 48 48 48 48 48 49 51 52
31 33 34 36 42 48 51 51 51 53 53 55 56 54 53 51 51 50 50 48 48 49 48 48 49 50 52 52 51 51 52 53
32 33 36 41 46 52 55 53 57 58 56 55 58 59 59 58 58 56 51 49 47 47 49 50 50 51 53 53 53 54 57 58
36 39 42 46 50 55 58 59 58 56 57 59 58 56 57 58 60 58 57 52 49 47 49 51 53 53 52 54 56 56 57 56
40 44 48 51 53 54 57 58 57 56 58 56 56 56 55 57 57 55 54 51 48 48 49 51 54 57 57 58 59 60 65 64
45 49 51 53 54 54 58 59 58 57 57 58 58 58 59 58 57 52 49 48 49 47 48 47 47 49 52 58 59 66 66 69
51 55 58 59 60 60 61 61 61 60 62 63 64 64 60 55 52 48 45 42 39 38 38 39 40 44 49 55 61 65 69 70
59 59 60 63 63 65 67 67 67 66 67 68 66 62 60 55 50 44 39 36 35 31 29 30 34 41 48 54 63 69 71 84
61 64 67 67 68 69 71 72 72 70 67 61 60 59 57 56 47 43 41 42 35 32 32 35 39 44 53 60 67 75 80 96
64 67 67 70 71 71 70 70 71 70 66 67 63 63 56 50 49 46 43 42 42 41 47 52 59 60 66 73 79 89 90 86
65 67 68 68 68 69 72 71 69 68 67 65 60 56 53 49 46 43 45 48 49 52 59 61 66 69 72 76 78 74 73 82
65 65 67 69 70 71 70 68 62 58 59 59 60 59 51 43 38 40 43 46 50 53 60 70 72 71 70 72 75 80 79 75
66 67 69 71 67 63 62 62 61 56 55 64 67 57 53 53 47 40 45 51 58 66 74 81 81 82 85 85 82 79 75 70
65 65 69 73 71 67 68 66 62 65 69 66 59 57 55 56 51 51 55 62 71 79 83 87 89 90 88 86 82 77 70 62
61 61 66 69 70 66 66 65 69 66 65 64 59 60 57 55 55 54 63 73 80 89 93 97 95 93 90 81 77 68 56 51
65 67 69 68 67 69 69 69 68 70 63 62 60 62 62 59 61 63 73 84 93 98 98 99 97 95 88 79 62 54 50 44
71 70 70 71 71 68 68 67 72 67 64 65 70 65 64 67 73 80 87 96 96 95 90 86 84 76 66 61 56 50 43 38
73 75 70 67 72 71 69 65 63 63 62 64 69 73 68 77 81 84 90 92 88 84 80 72 66 62 57 51 47 40 35 29
79 74 71 74 77 70 63 62 61 62 62 66 72 79 72 77 82 83 79 75 70 67 64 60 58 55 52 45 38 31 26 26

GFSFLT1_prec_cthk_015.txt.gz
RH
31 31 31 34 38 42 48 49 50 49 50 51 53 53 53 55 55 54 55 54 52 51 45 42 44 47 47 47 47 47 47 46
29 31 33 36 38 44 49 51 52 53 54 55 56 56 56 54 54 56 55 54 52 49 47 43 42 43 45 48 48 50 49 51
32 33 36 42 47 49 51 53 54 55 55 58 56 54 55 55 56 54 54 53 50 47 45 43 43 42 44 47 51 51 51 52
35 37 42 47 51 53 56 57 56 56 56 56 56 56 57 58 59 58 55 54 52 47 46 45 44 43 43 45 47 50 52 55
40 44 49 52 55 56 57 58 59 59 60 61 62 62 59 58 58 57 53 53 52 51 46 42 40 38 36 38 41 42 50 55
46 50 54 56 57 59 61 62 64 66 67 67 67 68 63 61 61 54 53 52 49 43 40 37 35 32 31 29 28 30 37 47
52 55 58 59 61 62 66 68 70 71 71 71 69 68 72 67 66 64 57 51 44 42 40 36 32 30 30 34 39 41 44 46
58 59 62 63 65 68 70 71 69 68 70 74 78 75 70 63 61 54 54 51 47 44 43 40 35 32 31 35 40 47 54 59
62 62 64 67 69 70 68 67 69 73 78 79 75 68 64 62 58 60 58 56 56 53 49 46 48 46 48 50 53 57 64 69
60 62 63 67 69 69 71 74 75 67 62 56 56 58 59 56 58 58 53 47 49 49 50 54 57 60 63 66 63 67 70 75
57 59 64 67 70 72 71 69 66 63 62 59 60 59 61 64 54 48 47 50 56 59 63 63 67 72 73 72 71 72 74 76
61 62 62 62 63 64 62 64 66 66 64 64 66 65 62 53 52 54 51 51 55 58 63 67 73 80 85 86 86 88 87 84
59 58 58 60 63 64 65 66 65 64 63 64 62 59 57 51 47 52 57 62 60 65 68 72 83 88 91 95 93 92 89 84
59 61 63 65 67 68 68 66 65 67 65 63 60 57 54 58 60 61 62 61 67 71 75 82 90 97 97 95 93 92 89 83
65 66 65 66 67 64 62 61 63 58 55 53 55 59 60 63 64 65 66 69 78 82 87 93 94 92 93 90 85 81 73 64
69 68 64 63 59 57 56 63 64 60 58 63 67 67 71 70 67 70 76 85 88 90 91 92 89 87 83 77 70 64 60 56
71 68 67 63 60 57 56 55 55 60 65 65 65 68 68 64 68 67 74 76 81 81 78 74 69 66 64 61 58 58 57 53
76 73 63 67 66 59 57 52 54 56 61 62 59 55 56 63 69 72 71 62 60 59 59 57 57 56 55 53 52 49 45 42
79 70 70 74 62 53 50 49 50 60 58 54 57 62 68 70 70 67 61 59 58 57 54 47 42 39 38 37 38 36 38 38

GFSFLT1_prec_cthk_018.txt.gz
RH
34 36 38 36 37 40 47 55 56 54 54 54 55 55 55 57 58 57 55 53 51 49 48 48 49 50 47 47 46 46 48 45
36 33 33 35 38 45 52 56 55 57 58 59 60 60 59 60 61 59 58 57 57 56 54 54 53 50 50 48 48 47 47 51
34 36 38 40 43 45 51 56 59 59 59 61 62 63 63 65 66 66 64 62 62 60 56 52 52 48 48 48 47 46 46 50
38 39 41 44 48 53 58 61 62 62 62 64 65 66 68 68 68 68 67 66 65 60 56 52 46 45 41 39 40 39 40 42
43 45 47 51 54 58 62 63 62 62 63 64 66 68 67 66 66 67 68 68 64 57 50 43 40 42 43 42 43 44 49 45
46 51 55 58 58 60 62 63 62 63 64 66 66 64 64 67 73 84 79 67 60 54 48 42 42 43 43 42 42 48 49 46
53 53 55 57 59 60 62 64 66 68 71 66 66 70 71 70 67 61 58 55 49 51 50 45 44 45 49 48 44 43 45 48
56 60 62 63 64 63 65 69 72 75 71 71 73 76 64 61 56 52 51 48 49 53 48 51 49 45 42 42 44 46 48 52
60 59 60 61 62 64 67 71 72 71 69 62 57 57 57 55 53 53 51 54 51 49 47 49 48 53 57 53 53 54 54 59
53 53 56 60 63 63 61 61 60 60 60 61 60 56 56 58 57 56 54 52 52 51 53 58 59 61 66 71 74 75 67 69
56 59 63 63 61 59 60 60 63 64 65 63 60 61 62 62 57 53 48 50 55 60 67 69 71 73 73 76 79 80 84 86
61 61 58 59 63 65 64 65 66 67 62 60 61 58 57 51 52 49 51 60 64 69 74 74 72 74 81 84 89 95 98 97
64 65 64 66 68 67 67 69 66 63 60 56 52 47 48 49 51 59 61 65 67 69 68 72 76 84 89 93 96 96 96 95
65 69 71 70 69 69 68 66 61 58 59 54 46 48 50 51 53 65 69 69 66 71 76 80 86 92 98 98 97 95 93 89
70 71 70 69 67 67 69 67 64 62 56 53 52 53 52 52 62 66 67 70 74 80 87 93 90 89 87 86 86 86 83 78
68 66 66 66 66 71 68 66 62 57 52 52 47 41 44 51 58 66 71 72 74 73 68 67 67 66 64 59 60 62 62 61
71 68 64 64 68 70 65 64 54 47 44 45 45 46 51 60 66 70 71 70 70 65 63 60 57 56 50 45 43 44 46 47
67 63 63 66 69 66 60 49 44 39 44 44 47 53 59 65 70 73 70 67 64 58 46 40 38 38 33 31 31 33 36 38
70 72 72 69 61 59 53 41 35 40 43 49 53 58 64 69 68 71 67 58 39 34 37 39 39 39 37 39 39 42 47 49

GFSFLT1_prec_cthk_024.txt.gz
RH
53 52 50 42 42 45 47 54 63 64 66 63 64 63 65 67 70 71 68 67 63 65 58 57 58 58 56 56 61 60 53 48
46 48 47 47 44 46 50 53 58 61 62 63 65 67 68 69 68 70 68 69 70 65 62 61 67 64 58 56 54 48 44 45
43 48 49 47 44 46 51 56 59 60 62 65 65 67 68 67 67 70 71 78 75 66 62 62 57 54 50 46 41 39 40 45
43 46 47 46 48 51 55 58 60 63 63 63 63 63 63 64 68 69 73 76 71 66 59 54 49 45 40 39 38 41 44 46
43 45 47 49 53 56 59 60 62 59 58 59 59 62 64 66 67 67 62 60 58 55 53 47 43 43 43 43 50 51 54 53
50 51 52 54 56 59 62 64 61 56 56 59 60 59 57 55 54 54 54 55 54 53 50 49 49 51 52 57 56 56 57 59
51 52 55 57 60 59 58 56 55 58 58 53 52 52 54 56 57 58 57 56 56 52 50 48 48 53 60 63 61 61 55 58
53 57 60 62 61 56 54 54 55 56 57 59 61 61 62 62 62 60 59 57 54 52 51 55 56 57 59 58 54 51 52 51
55 56 57 57 58 59 57 57 57 57 58 58 62 63 62 63 61 58 57 50 48 48 51 50 51 51 47 45 52 51 56 60
58 60 59 58 59 58 57 59 60 58 57 57 57 59 61 56 53 52 48 45 42 44 42 45 44 47 47 59 59 59 64 68
60 59 59 60 60 61 61 59 59 59 59 59 58 59 56 52 48 42 41 39 37 38 42 42 49 56 60 61 65 69 73 77
62 63 60 61 59 59 61 61 62 60 59 60 57 53 50 52 47 43 39 37 35 39 47 55 63 69 74 77 77 80 78 78
63 61 61 61 63 61 63 62 63 65 67 61 58 54 47 44 44 37 36 34 39 47 56 60 64 71 79 86 85 80 75 67
62 60 62 63 59 59 61 63 66 67 62 60 48 47 45 43 39 36 36 39 44 49 55 60 64 70 73 70 60 53 47 41
62 61 64 60 59 60 60 64 65 63 55 50 52 53 48 46 38 40 45 52 54 55 58 63 66 60 48 46 46 41 39 36
61 66 63 59 58 58 61 63 62 57 54 53 53 52 53 52 47 46 54 57 57 57 63 63 51 47 50 51 45 43 41 35
66 66 63 61 61 61 64 68 59 61 61 56 51 56 61 64 53 51 54 54 58 64 60 52 52 52 50 44 42 44 48 48
70 67 67 63 60 58 56 62 67 61 67 61 71 69 58 55 49 52 56 57 66 63 54 54 52 50 49 48 50 55 59 59
67 67 64 60 54 51 54 56 54 56 60 70 62 79 80 62 58 62 59 64 73 75 57 54 50 51 56 58 61 68 70 69

GFSFLT1_prec_cthk_030.txt.gz
RH
48 52 56 56 62 70 77 83 75 73 61 59 64 69 69 68 70 71 70 65 65 66 66 66 65 61 58 54 48 43 39 35
49 53 57 71 75 76 82 79 77 66 66 68 67 70 71 73 72 67 64 65 67 69 70 66 60 59 54 48 43 40 37 34
49 54 64 65 68 70 66 65 67 64 65 65 68 70 71 71 65 65 67 69 69 65 62 60 59 55 50 46 44 40 38 35
54 56 55 56 56 53 53 54 56 57 59 62 64 63 60 58 60 61 61 60 58 57 56 55 54 52 49 43 36 34 37 40
53 50 48 46 47 48 48 51 54 56 55 56 54 49 51 53 54 54 53 53 53 53 53 52 48 39 34 34 35 39 40 44
56 52 48 45 44 44 45 46 47 47 48 48 49 51 50 47 48 48 49 51 51 50 48 37 32 32 34 35 37 37 37 42
53 46 43 44 45 44 47 50 51 52 53 52 48 46 47 50 54 57 55 53 53 48 36 31 28 28 29 32 35 37 38 41
54 57 52 51 49 51 53 55 55 55 51 49 48 49 52 55 58 59 58 54 44 36 30 28 30 30 32 35 37 39 41 46
66 62 58 59 61 60 60 56 50 49 49 49 49 51 55 58 57 54 50 42 36 35 36 36 33 31 33 36 41 44 48 52
64 63 70 70 71 66 62 57 54 53 54 55 54 57 59 61 52 40 36 35 38 34 26 29 29 30 35 38 42 46 48 53
65 71 75 74 67 64 62 59 57 56 58 60 59 58 55 51 44 36 33 33 34 30 30 30 32 35 38 40 42 47 50 54
77 79 74 73 67 64 60 58 56 60 60 56 52 48 42 37 41 40 33 38 41 40 42 43 39 46 46 46 43 45 52 50
78 73 74 69 65 62 59 57 54 53 51 48 43 43 44 39 39 40 41 51 65 65 67 66 66 64 65 61 56 47 44 45
74 73 70 66 60 56 53 51 51 48 43 40 42 45 48 51 49 48 55 59 85 90 90 82 77 74 72 61 57 47 46 49
71 68 65 62 58 53 53 50 44 38 37 45 48 49 55 63 72 68 60 75 81 96 89 90 83 79 70 55 60 51 47 48
71 69 63 59 55 53 48 41 37 39 43 46 51 57 57 50 51 54 66 75 82 96 93 91 87 80 74 64 62 49 50 49
66 62 58 57 53 49 45 40 44 45 45 45 49 47 40 34 31 34 42 65 96 94 94 91 85 80 74 69 50 51 48 48
64 57 56 53 48 46 44 46 46 43 38 34 29 26 32 39 36 38 42 55 68 81 96 96 83 80 74 52 48 47 48 47
60 56 50 45 40 40 42 40 34 29 27 25 27 35 41 44 39 47 58 67 74 90 97 89 82 69 50 48 47 50 46 55

GFSFLT1_prec_cthk_033.txt.gz
RH
40 45 52 54 62 70 79 83 86 88 79 72 66 68 65 64 67 70 72 69 68 68 65 63 63 62 59 56 51 47 44 37
52 50 55 59 68 81 83 83 81 76 75 76 72 70 68 70 71 71 69 69 70 68 65 62 61 57 54 51 49 44 40 36
62 59 64 73 78 69 67 67 69 70 67 63 64 64 66 69 71 67 66 65 61 59 57 57 56 54 51 48 44 38 34 33
63 63 66 65 61 57 57 56 54 54 55 58 63 63 61 59 57 57 55 54 52 51 51 53 53 51 41 34 33 34 34 31
68 63 60 59 58 54 53 52 51 52 54 54 55 55 57 58 57 54 54 54 56 56 56 54 47 37 32 31 31 30 29 32
66 66 62 58 55 51 49 50 51 52 50 50 52 56 57 54 53 55 56 56 54 51 47 40 33 31 31 30 28 29 32 35
69 66 60 57 57 58 57 55 54 54 54 56 53 50 52 53 56 57 56 51 45 40 34 31 30 30 29 28 28 30 33 33
67 69 64 68 69 67 63 62 60 59 56 52 51 51 54 56 57 56 49 42 35 30 30 32 29 25 24 25 27 32 34 35
76 78 74 71 68 67 65 63 58 56 55 52 52 53 54 54 48 43 34 31 32 35 39 37 31 31 29 30 33 32 35 42
65 61 64 68 69 67 65 61 59 57 53 52 53 51 48 44 44 38 34 34 35 37 40 41 42 41 40 44 47 48 49 49
59 65 71 73 72 68 66 64 61 57 56 52 47 42 38 36 38 40 41 42 43 44 50 51 54 61 64 66 71 66 64 60
71 76 75 75 72 71 69 63 60 57 52 48 42 37 35 35 41 45 47 52 59 55 60 64 64 80 88 88 80 73 68 62
72 75 78 78 74 70 65 65 60 56 51 42 41 40 41 45 49 51 57 53 59 58 54 69 70 82 91 85 81 69 63 59
75 77 74 69 68 71 69 62 56 50 45 42 38 40 45 48 49 42 40 33 31 41 46 67 85 94 92 88 77 69 69 61
72 70 70 74 75 69 63 53 48 47 44 41 45 45 43 41 35 31 32 32 34 36 52 69 86 91 94 86 75 72 65 56
71 71 74 74 69 65 55 47 46 43 40 41 40 34 28 27 30 33 36 37 34 42 57 69 77 93 97 84 78 75 52 50
72 75 72 66 63 59 48 46 41 35 35 29 27 28 30 33 33 34 33 35 45 54 65 68 76 86 85 86 74 47 47 48
76 73 69 65 57 47 45 41 35 32 27 29 31 33 33 32 34 32 33 40 50 61 69 79 83 83 83 62 48 47 48 47
73 70 65 57 50 47 43 37 31 29 31 33 36 34 30 34 33 35 40 46 56 65 75 81 81 75 52 46 45 46 44 42

GFSFLT1_prec_cthk_036.txt.gz
RH
49 53 53 55 58 62 73 87 97 91 95 91 82 80 72 69 69 70 70 70 70 67 64 60 56 54 52 49 47 45 43 39
52 58 60 64 75 81 89 93 90 87 87 81 75 74 66 65 63 63 62 60 60 58 54 51 50 48 46 46 43 37 32 28
59 62 70 76 83 82 73 71 69 69 68 64 61 59 58 56 55 53 52 52 50 48 48 48 48 47 45 40 34 30 28 27
63 64 70 69 68 65 62 59 56 53 50 48 48 47 49 52 54 54 52 50 51 52 52 50 46 38 32 27 25 24 24 24
59 61 62 61 61 59 57 54 53 51 53 54 52 54 55 55 57 56 56 58 55 49 41 34 29 27 26 24 25 24 24 25
60 66 64 63 58 57 57 59 61 64 61 57 58 59 58 57 56 56 57 53 46 38 30 28 27 25 23 22 22 23 25 27
67 70 65 66 70 71 70 72 69 65 67 65 63 60 54 55 54 52 48 41 33 29 27 27 26 26 26 25 25 28 30 34
62 67 74 75 80 82 77 75 73 72 71 66 60 58 57 54 51 47 40 36 33 32 32 34 35 35 33 33 35 39 37 41
76 78 83 79 72 72 75 76 74 70 66 59 59 57 51 48 44 37 34 34 34 36 38 41 43 45 43 44 47 51 50 60
72 68 67 69 70 73 75 74 69 67 62 61 54 51 49 45 40 36 36 38 41 43 43 47 49 48 53 55 64 65 68 67
59 62 66 70 71 71 74 71 68 63 64 59 54 49 44 41 40 42 43 44 43 41 43 43 43 49 63 67 74 73 73 79
57 59 61 65 70 73 73 68 69 72 65 58 50 44 43 44 44 46 46 42 40 38 39 40 42 50 53 64 73 82 86 82
58 62 65 70 73 71 68 76 77 66 61 55 48 47 46 45 45 41 37 37 34 33 34 39 42 43 61 76 83 86 87 80
62 65 68 70 68 71 83 76 65 62 59 55 51 45 39 36 32 30 30 31 31 31 35 40 44 52 72 72 78 89 91 87
66 67 67 66 74 84 69 68 65 62 57 49 41 36 32 30 31 30 31 32 31 33 38 43 48 57 62 70 74 80 80 73
65 66 67 72 74 72 70 67 62 54 48 42 34 33 34 33 32 30 32 32 31 34 41 45 52 61 67 72 74 76 62 47
65 68 73 74 71 70 67 62 55 47 42 35 35 35 34 34 33 31 33 32 34 37 43 54 60 66 67 69 67 48 44 43
68 70 68 67 69 69 64 57 50 43 37 36 37 36 34 34 35 35 32 30 36 43 54 63 65 65 67 64 47 44 42 40
68 68 69 71 71 66 59 53 45 37 36 37 36 33 34 35 35 34 35 34 44 53 63 69 66 59 52 45 43 42 40 37

GFSFLT1_prec_cthk_039.txt.gz
RH
50 52 56 59 62 64 72 81 91 93 94 83 83 77 70 72 72 70 67 64 61 58 58 57 53 51 48 45 41 36 31 26
52 55 56 59 65 73 83 87 91 86 75 71 65 62 66 65 61 55 53 52 53 53 49 49 47 45 40 34 29 25 23 21
56 59 60 68 72 78 79 75 62 55 53 52 54 56 53 52 50 52 53 54 53 54 52 48 43 36 30 26 23 20 19 18
56 61 61 60 62 62 60 56 54 49 51 55 60 63 63 60 59 61 63 61 57 54 49 40 32 27 24 21 19 18 20 20
60 59 58 62 65 61 59 57 57 60 65 70 71 69 66 63 61 62 61 58 53 47 39 31 28 27 27 27 25 23 22 27
57 60 60 61 65 64 68 70 70 75 79 78 76 68 66 68 66 61 55 51 46 41 35 32 31 32 32 31 31 29 32 37
61 64 62 62 68 76 78 80 79 77 74 73 71 69 68 64 59 53 48 42 38 34 33 34 35 35 36 38 40 38 38 39
61 60 66 75 77 74 76 75 74 71 72 73 71 67 64 57 51 45 42 40 37 36 36 36 36 38 39 39 38 39 53 51
59 62 65 67 65 63 67 70 72 75 73 69 68 66 61 55 48 45 44 42 40 39 40 37 37 37 36 35 40 49 52 53
60 62 60 59 61 64 65 68 72 75 70 71 72 66 57 54 53 48 44 43 43 43 39 35 29 32 35 39 52 49 54 63
59 59 57 58 61 64 67 70 70 69 75 77 69 60 58 54 52 49 45 41 37 34 31 29 29 34 41 52 47 52 63 68
51 54 56 61 63 65 68 65 67 75 77 72 65 62 57 55 49 41 36 32 30 29 29 29 33 41 50 48 48 61 68 66
53 55 58 63 65 67 68 70 76 79 74 67 65 61 56 46 37 33 32 31 31 31 30 32 39 50 52 43 59 67 66 70
57 61 63 66 69 73 69 72 79 73 68 65 61 54 43 37 36 35 34 32 30 31 30 35 40 42 45 53 58 62 65 66
59 63 66 68 71 68 75 80 70 65 63 59 51 42 41 41 40 37 33 32 31 30 31 36 38 42 49 56 60 61 63 59
59 64 68 68 67 78 69 64 63 64 58 50 45 45 44 44 39 35 33 31 30 31 32 39 42 49 58 61 61 59 56 43
58 62 66 69 68 65 65 66 64 58 53 48 47 46 44 40 37 35 33 32 31 32 35 41 50 57 64 62 57 52 42 39
58 61 64 64 64 68 68 65 60 56 49 47 46 43 41 39 36 33 32 33 34 35 40 49 58 65 65 52 44 42 42 39
58 62 62 63 68 69 70 64 57 50 47 45 44 42 40 36 33 33 34 35 34 38 48 56 64 63 50 41 40 42 42 37

GFSFLT1_prec_cthk_042.txt.gz
RH
51 53 57 60 63 66 71 73 80 84 97 90 82 74 71 68 69 64 58 53 52 52 54 54 49 47 45 39 37 35 31 31
49 51 55 58 62 66 73 79 81 82 87 73 64 56 59 57 54 51 51 51 51 55 57 54 52 50 43 35 30 26 27 30
54 56 60 61 64 70 72 75 67 60 58 53 55 57 62 64 65 62 60 60 62 63 60 58 52 43 36 31 29 28 29 31
54 56 59 63 65 66 66 66 57 54 59 60 63 70 74 73 72 70 67 68 65 59 54 45 35 33 33 32 32 33 35 34
53 55 60 60 63 58 59 62 63 64 68 72 76 80 79 73 70 71 71 66 59 51 41 35 34 36 36 39 38 39 39 43
55 59 60 60 56 57 60 65 69 70 72 76 78 76 72 70 73 73 67 60 50 42 41 39 38 40 42 43 43 47 47 48
55 56 59 56 53 60 71 71 67 68 68 68 71 73 73 74 74 70 65 55 52 50 48 44 45 47 49 47 47 52 53 54
55 59 56 56 62 65 66 67 65 68 69 69 70 72 72 77 74 63 56 54 54 55 51 50 48 44 40 41 52 54 54 62
56 56 59 63 63 66 64 67 69 67 67 67 64 70 75 74 63 58 57 59 58 50 49 48 43 41 45 46 50 59 66 62
55 59 62 63 61 61 63 65 67 65 66 64 68 71 72 65 60 58 58 57 53 49 43 39 38 40 42 46 52 65 63 52
55 60 62 59 58 61 64 67 67 66 66 65 71 76 66 60 56 59 55 46 41 39 39 39 39 40 42 44 48 50 48 49
53 59 57 57 60 65 68 67 64 68 67 74 77 67 60 58 57 49 43 41 39 39 39 37 39 41 42 38 47 46 44 57
52 54 56 60 63 66 66 65 70 76 76 76 66 59 57 53 49 46 44 43 40 39 37 36 41 41 37 38 40 44 51 55
49 53 56 59 63 66 65 70 76 77 72 62 60 55 50 48 48 47 46 42 39 38 35 37 40 41 42 39 44 55 59 59
51 55 58 61 63 62 66 78 75 65 62 61 53 49 49 51 51 47 43 40 37 35 34 38 35 40 44 49 54 63 64 59
49 55 59 61 61 62 72 73 65 62 61 55 51 52 52 54 49 45 42 38 36 35 34 35 34 40 46 56 63 70 59 51
49 54 57 60 59 65 71 62 62 63 57 53 54 54 55 52 47 45 41 39 40 42 36 35 38 46 50 58 66 53 43 42
48 53 57 58 61 67 61 66 68 62 55 58 56 54 53 49 47 43 41 41 38 37 36 36 42 51 55 59 44 44 43 44
50 53 56 58 63 59 74 73 66 59 61 59 60 56 53 50 47 42 40 40 36 37 36 41 50 55 56 52 45 45 46 46

GFSFLT1_prec_cthk_045.txt.gz
RH
53 55 56 58 62 67 69 71 72 79 83 84 80 75 74 71 69 66 67 63 55 54 55 55 56 56 53 48 42 36 34 32
53 55 57 60 66 68 71 70 68 78 76 65 64 71 67 60 61 61 61 59 60 59 61 60 57 51 46 45 42 38 36 34
55 57 59 63 62 65 66 69 74 73 69 66 66 62 64 69 71 69 68 65 65 67 66 61 56 51 47 44 39 40 39 37
54 56 60 61 62 66 73 74 67 65 60 61 62 65 66 68 69 68 67 67 66 62 60 57 51 43 42 43 45 47 47 46
54 56 57 61 67 69 71 63 57 57 59 63 66 67 68 68 71 68 68 69 66 65 60 51 48 50 49 54 53 53 51 52
51 55 58 64 63 59 60 58 60 64 61 62 66 68 70 71 71 72 76 72 68 62 60 58 56 55 58 56 55 54 53 51
47 51 55 55 58 61 59 59 62 62 61 62 65 68 68 69 69 74 74 68 63 62 62 60 59 60 58 55 53 51 51 57
44 48 51 54 58 58 60 61 61 62 61 64 64 65 64 65 71 73 72 64 62 61 59 57 60 56 49 49 48 49 50 63
46 50 52 55 57 60 61 62 62 64 64 66 65 62 65 66 71 74 63 61 60 56 57 55 49 44 42 45 46 52 51 68
48 51 55 56 58 59 60 62 62 64 65 65 64 66 68 74 69 60 62 58 51 51 50 48 43 40 40 47 46 52 50 65
45 49 52 55 60 61 61 62 64 66 67 67 70 73 74 73 61 59 52 49 51 50 48 45 42 41 43 47 47 50 47 57
46 49 52 57 61 60 62 63 65 66 66 67 72 74 73 63 57 51 49 53 53 50 46 45 43 42 48 49 41 40 46 48
43 48 52 56 59 59 61 65 66 66 63 76 85 67 62 55 53 50 54 55 52 51 47 45 46 46 49 41 38 40 51 57
42 45 50 54 56 59 61 63 64 64 68 83 69 64 56 55 53 56 57 56 54 49 48 50 46 46 42 38 42 47 51 58
40 42 47 52 56 60 62 64 63 66 71 73 62 57 57 56 58 58 61 58 53 54 53 49 44 41 39 42 48 52 56 64
37 41 47 52 56 60 63 64 68 67 69 62 59 62 58 60 64 65 59 57 53 58 51 50 43 39 39 43 49 57 63 68
38 42 48 52 55 59 64 65 66 64 69 68 66 58 63 69 68 63 67 60 58 51 48 44 36 41 39 46 51 57 54 47
40 44 49 53 57 62 62 63 63 74 74 69 60 69 69 66 66 67 59 57 52 50 45 38 38 44 43 49 51 48 43 50
42 46 50 54 59 60 61 63 76 73 72 64 66 69 72 70 65 59 58 54 51 42 40 40 43 46 47 52 52 46 47 53

GFSFLT1_prec_cthk_048.txt.gz
RH
40 42 49 55 58 60 66 69 75 70 70 72 74 68 66 61 62 63 60 60 53 51 48 50 53 52 48 46 43 39 36 35
46 49 50 52 54 57 63 66 67 67 68 72 63 57 60 60 59 51 49 48 48 54 56 56 57 56 54 51 47 45 42 41
45 48 50 54 54 57 63 64 66 71 75 63 52 55 55 51 48 49 53 55 59 61 62 61 57 55 51 47 45 44 45 47
46 50 51 55 58 58 63 68 69 69 66 54 53 52 49 50 54 57 61 63 62 62 62 57 55 51 48 46 45 47 45 42
49 53 56 56 59 64 65 66 63 63 58 54 52 52 52 60 61 61 62 62 64 66 63 57 53 51 46 44 46 44 42 42
50 52 54 54 56 57 62 64 58 60 56 56 58 61 64 67 70 69 68 66 66 65 58 57 54 50 47 47 46 44 39 39
52 55 56 53 53 59 62 56 58 58 58 60 60 62 65 66 65 64 64 69 71 65 59 58 53 49 46 47 44 40 38 40
49 51 54 55 53 52 54 58 61 60 60 59 60 63 67 66 67 67 68 72 68 59 56 51 47 45 45 43 41 39 40 46
44 46 47 51 51 52 56 60 59 57 57 59 60 63 64 66 68 70 72 67 60 55 51 47 45 48 47 45 40 39 42 50
42 42 44 46 50 53 56 59 58 56 60 60 61 63 63 66 71 75 69 57 55 50 46 45 49 49 47 46 47 44 49 48
40 42 44 47 48 53 55 61 59 58 59 62 65 64 64 70 82 77 73 56 48 47 48 53 53 51 49 50 49 49 42 40
37 41 43 47 51 53 55 62 64 63 63 65 66 66 67 74 82 79 55 49 48 52 58 57 54 55 53 50 49 48 41 31
36 39 44 45 48 55 61 65 67 65 64 67 69 71 67 70 84 75 55 52 57 62 61 59 56 52 52 49 46 41 34 40
39 43 47 50 51 56 60 63 67 65 69 72 80 74 79 69 67 52 55 61 66 64 61 58 52 50 46 41 40 39 43 47
45 50 53 51 52 55 58 61 60 65 71 77 70 81 64 63 68 60 63 73 67 64 59 55 56 52 48 45 45 43 45 50
45 51 52 50 51 53 57 58 61 71 74 72 72 68 68 80 65 65 80 72 67 59 56 58 57 54 48 45 46 46 47 51
42 40 45 47 51 54 56 60 68 71 69 68 71 76 77 67 67 79 73 72 64 57 60 60 52 47 44 43 43 45 47 48
40 43 47 51 54 56 58 64 67 64 66 74 77 80 71 63 80 77 69 65 60 63 63 61 52 46 44 43 45 49 51 50
37 42 49 53 56 59 61 62 63 67 71 75 76 77 75 84 76 70 65 66 68 64 58 53 52 48 41 44 49 51 52 48

GFSFLT1_prec_cthk_051.txt.gz
RH
37 38 40 46 50 58 57 58 61 62 65 62 66 70 64 60 59 58 53 50 45 44 45 41 41 44 44 41 41 43 41 37
38 43 42 45 50 53 59 66 66 57 61 65 70 63 56 55 55 50 48 44 40 42 44 47 48 48 47 46 43 42 40 37
35 41 42 44 46 52 54 61 59 62 65 67 63 54 49 51 50 47 43 42 46 50 51 51 54 53 51 44 41 39 36 37
36 40 45 46 48 51 57 57 60 61 67 64 54 53 50 48 42 43 47 50 53 54 54 56 55 54 50 45 39 36 37 36
41 41 45 48 50 58 58 58 60 62 64 55 53 46 43 43 48 51 53 54 53 53 56 59 58 53 47 42 40 38 40 39
44 44 46 51 54 56 58 57 56 60 54 57 52 50 50 49 52 55 57 59 61 58 60 58 56 49 45 45 45 41 43 41
54 55 52 51 53 55 53 54 54 56 57 56 57 53 54 55 57 62 66 67 67 65 64 63 55 48 49 47 40 43 42 41
56 55 51 49 48 48 54 56 53 57 59 58 57 56 56 59 62 66 71 69 68 71 78 70 57 48 47 41 47 49 46 43
46 47 48 48 46 51 54 55 51 56 59 59 58 60 62 64 66 68 68 70 73 84 76 66 49 44 47 51 53 51 49 48
43 46 42 42 44 48 48 52 53 57 60 59 60 64 68 70 69 68 67 67 74 82 73 63 52 49 50 54 53 52 50 50
35 37 37 40 43 45 48 52 56 60 60 60 66 69 72 74 74 71 75 84 72 70 67 50 52 59 57 56 54 53 52 53
33 34 36 37 39 42 48 56 59 63 65 64 66 80 82 86 75 92 78 92 70 56 59 59 61 61 60 57 54 52 54 54
36 36 38 39 41 44 47 49 54 60 64 72 79 87 86 84 83 82 78 76 61 68 71 65 66 61 57 53 55 55 50 49
41 42 44 45 53 65 69 70 72 74 74 74 77 80 83 79 85 71 76 65 65 72 71 68 64 63 56 56 57 52 51 50
44 46 48 54 76 85 82 76 77 66 65 71 74 77 79 79 74 76 74 70 75 77 74 66 62 62 65 62 60 55 53 49
44 48 56 71 74 76 75 73 66 63 64 70 73 74 70 77 81 82 75 77 83 72 66 70 66 66 64 63 59 56 51 46
36 45 55 62 71 57 60 59 57 61 63 68 73 71 74 83 83 83 83 83 73 73 77 67 67 67 65 56 43 42 44 44
35 43 50 53 55 51 52 54 58 61 69 74 73 75 84 85 80 85 83 77 78 75 69 65 64 57 49 44 39 41 43 48
36 39 43 44 48 54 58 60 65 70 70 71 76 86 88 86 89 85 80 75 69 66 62 60 53 47 40 37 38 43 48 55

GFSFLT1_prec_cthk_054.txt.gz
RH
38 40 43 47 52 46 47 46 51 56 54 51 56 63 59 53 52 52 49 49 47 46 43 43 44 43 45 47 43 40 39 39
37 38 41 44 45 45 44 48 56 56 53 59 61 60 59 57 49 49 50 48 46 45 42 43 45 50 51 47 45 44 41 36
39 38 39 41 44 48 50 54 57 57 56 58 60 62 59 54 51 50 49 48 45 43 46 50 52 53 53 53 48 41 36 34
37 37 38 39 43 46 52 59 61 60 57 58 62 63 56 52 51 48 45 44 46 50 52 51 52 57 59 52 45 38 37 38
40 42 43 44 47 49 54 57 61 63 60 62 65 54 52 52 50 43 44 50 55 55 55 58 60 60 61 56 52 46 44 43
43 44 47 51 54 56 58 60 63 65 62 67 58 54 54 49 45 47 53 56 57 57 57 58 60 63 65 63 58 56 53 43
47 47 49 56 60 55 57 64 63 64 64 62 55 55 48 50 52 54 56 57 57 58 61 62 60 63 69 70 69 59 45 44
45 49 54 61 62 54 58 57 58 58 60 54 57 53 54 55 58 61 65 66 65 71 74 66 74 73 74 77 58 42 43 46
47 50 51 66 55 57 57 52 52 56 54 56 55 57 59 65 68 67 71 75 85 84 82 84 86 87 68 44 43 50 52 52
41 44 52 53 51 56 54 50 53 55 52 56 60 64 69 66 77 84 84 85 96 86 91 88 82 78 53 50 54 55 56 55
39 42 44 46 48 48 50 50 49 50 53 57 62 68 76 79 86 87 89 84 93 81 86 75 70 62 58 62 64 57 58 59
31 33 32 33 36 39 42 45 46 52 61 67 71 80 83 82 87 90 86 95 92 87 85 65 64 61 71 70 60 60 63 62
28 29 31 32 34 39 44 49 61 70 69 71 81 79 84 81 82 84 97 96 80 84 77 67 72 77 69 60 66 66 62 59
35 38 40 41 41 48 56 66 74 87 88 87 83 76 77 82 82 76 83 80 69 70 68 78 79 69 69 69 68 68 66 61
41 44 51 56 58 61 64 81 81 91 88 88 80 71 79 71 71 82 75 72 80 83 81 80 72 76 71 69 69 69 62 52
46 48 53 57 62 71 76 80 85 85 87 72 72 66 63 65 83 73 78 85 85 87 80 79 75 66 65 66 61 52 45 42
47 49 50 58 58 63 73 79 84 79 67 63 63 70 76 81 78 87 87 86 87 80 76 73 67 61 56 53 46 39 38 35
37 36 41 49 53 64 70 68 55 58 67 73 74 77 80 84 90 94 93 87 78 76 71 59 52 49 49 44 41 34 34 38
37 38 40 42 44 46 48 53 61 69 76 75 78 82 87 94 96 91 83 76 71 63 53 49 46 42 41 39 38 34 36 41

GFSFLT1_prec_cthk_060.txt.gz
RH
42 42 43 47 50 49 53 53 49 49 50 55 57 57 64 65 68 63 59 54 52 55 56 54 45 39 41 44 44 42 40 37
42 42 44 46 51 52 51 53 55 56 57 57 58 61 66 65 66 62 60 56 56 53 53 43 41 43 45 46 44 46 45 43
40 41 42 41 45 46 48 49 52 57 56 59 57 60 63 68 67 64 63 62 56 53 46 43 43 46 47 48 50 50 52 53
38 39 41 43 44 47 49 51 54 56 58 59 60 61 65 66 68 67 65 62 55 48 44 43 46 49 51 56 59 61 61 61
44 42 46 52 52 52 53 54 56 61 63 62 66 67 66 69 75 65 64 58 53 48 46 48 54 60 66 70 77 78 82 78
46 47 51 52 60 63 61 64 63 63 61 69 73 79 78 74 73 66 62 58 53 49 52 59 66 71 75 87 87 83 86 80
49 49 50 53 59 67 65 63 66 66 65 72 81 81 78 77 72 61 63 59 52 56 66 71 73 80 88 96 96 88 89 79
49 50 49 50 49 58 60 69 69 73 71 79 82 72 72 77 61 56 58 57 59 73 78 82 84 85 87 96 89 92 79 73
44 41 41 43 54 57 52 65 84 78 80 82 74 67 71 64 55 56 63 70 78 80 81 80 88 92 92 88 88 79 69 61
29 33 35 37 42 48 50 59 79 65 63 64 60 67 67 59 60 69 72 78 80 87 83 86 87 91 84 87 79 75 69 65
27 27 29 31 37 39 45 51 57 51 53 54 61 62 60 64 73 74 81 88 90 90 95 87 89 78 77 77 73 77 72 66
29 27 27 28 30 39 43 52 51 51 52 57 59 58 67 71 81 89 89 96 88 97 94 91 90 83 77 76 77 76 72 70
33 30 29 30 36 39 43 48 56 52 56 63 63 67 76 79 84 87 96 93 94 97 88 77 80 82 83 83 80 77 74 68
42 40 40 39 41 44 54 63 65 70 74 79 77 84 83 88 90 89 94 92 87 83 85 89 81 83 84 84 82 74 68 50
34 37 39 42 46 54 62 60 66 72 72 82 87 85 88 92 96 92 85 81 82 93 83 85 88 86 84 81 73 62 43 34
39 43 46 50 56 56 57 57 62 66 71 73 78 81 88 94 91 76 92 95 83 79 92 94 93 92 83 73 59 31 27 27
42 45 48 51 51 51 55 56 54 52 62 66 69 78 87 81 79 78 84 73 88 91 94 97 96 80 66 48 25 23 26 27
42 43 44 44 46 48 48 49 52 52 55 61 70 75 76 78 78 79 79 89 96 94 92 82 72 59 38 23 23 25 27 27
39 40 40 40 39 39 41 42 44 49 58 66 70 69 77 77 79 96 91 92 93 87 77 63 50 28 21 22 25 27 27 30

GFSFLT1_prec_cthk_066.txt.gz
RH
55 61 59 54 57 60 58 53 56 45 34 31 39 51 59 63 66 70 75 77 81 74 65 56 55 54 52 47 36 38 41 42
41 45 52 50 51 48 47 48 55 58 55 54 54 56 57 56 58 68 71 76 81 68 57 55 55 53 49 37 37 41 46 52
47 47 50 54 56 58 61 62 60 56 56 53 53 54 56 60 63 75 73 75 78 62 60 58 54 50 42 39 42 50 57 60
46 45 47 50 49 50 53 54 57 58 61 59 59 60 63 63 65 77 82 82 72 67 65 57 56 49 43 46 51 60 67 68
39 40 39 42 45 46 50 51 54 54 55 59 60 63 66 68 70 77 81 81 78 72 68 59 54 50 49 53 62 70 72 74
40 39 37 40 42 45 47 52 55 57 56 59 65 71 76 75 72 78 85 89 87 80 75 62 55 58 60 62 70 76 76 78
51 48 46 45 48 51 55 58 63 72 71 70 72 74 77 79 80 84 90 93 89 80 75 74 62 65 68 76 81 82 86 80
56 56 55 49 48 54 56 61 66 72 76 73 77 82 80 80 82 83 85 87 83 87 88 76 69 74 73 83 87 85 89 89
52 58 57 58 58 59 56 62 63 68 69 75 79 87 82 84 80 79 77 78 85 87 77 74 78 78 81 87 91 90 93 94
44 52 56 57 59 64 58 56 63 67 60 66 67 83 70 72 69 80 75 83 92 90 80 82 82 83 91 95 93 97 95 87
37 37 47 50 51 55 59 58 54 54 51 51 59 59 72 75 79 83 87 94 96 86 87 89 88 96 97 98 98 97 93 95
34 36 34 32 36 41 46 50 51 49 50 52 54 64 65 72 76 84 93 98 96 92 93 95 96 97 97 98 99 98 95 90
32 33 38 38 38 38 40 43 46 49 52 58 60 60 70 78 81 87 92 93 93 98 97 98 98 94 97 98 98 96 95 89
28 28 33 37 44 48 50 52 56 60 60 61 62 65 71 79 84 88 92 92 92 96 97 95 96 97 98 98 95 92 86 84
33 33 33 34 39 43 47 52 54 56 59 63 67 68 68 69 76 79 83 87 93 85 86 82 91 96 98 94 93 85 86 83
33 38 41 43 46 49 51 50 55 64 65 66 66 64 61 62 63 63 60 63 66 69 81 83 87 86 84 82 84 80 74 68
32 36 43 48 53 58 63 64 68 64 63 63 62 58 62 64 60 56 57 65 74 74 81 77 82 82 81 74 68 65 61 52
35 35 38 47 53 56 61 65 64 63 65 61 60 59 54 52 53 59 69 72 72 71 76 77 78 80 71 60 53 45 41 35
36 39 41 46 49 52 53 54 54 56 53 48 47 51 53 57 62 68 70 74 74 76 76 72 66 59 50 44 38 32 30 30

GFSFLT1_prec_cthk_072.txt.gz
RH
61 54 59 72 80 82 82 75 72 66 58 59 61 61 59 60 65 60 62 65 62 73 72 74 82 76 65 57 54 52 46 38
53 56 50 51 54 71 75 75 77 74 73 63 55 47 44 50 50 55 67 74 69 70 78 83 80 66 59 57 56 53 49 40
47 48 49 47 44 45 57 57 66 57 49 42 39 38 43 47 54 61 63 65 66 67 74 75 74 65 63 61 59 57 54 44
42 45 44 42 41 43 45 54 55 51 46 48 48 48 48 49 57 57 59 63 67 70 70 76 82 77 70 69 68 67 60 55
40 42 43 42 38 42 50 51 55 53 54 57 51 50 50 53 56 63 61 60 63 70 75 83 86 85 88 79 77 79 72 66
44 46 46 45 43 42 44 49 52 52 54 60 58 55 55 54 60 64 72 70 72 72 77 81 85 91 93 93 88 85 84 78
48 46 46 49 52 51 47 47 52 55 62 64 67 68 71 73 76 79 83 84 75 83 86 88 92 92 92 95 97 93 89 86
51 51 50 49 51 52 50 50 50 58 63 68 68 69 73 72 75 74 76 80 76 77 82 87 91 93 95 97 92 97 95 90
52 55 54 51 51 52 55 53 52 59 63 63 68 72 73 74 75 74 73 73 66 69 74 78 88 93 96 97 98 95 98 90
49 53 57 54 52 49 52 55 56 58 61 64 62 65 68 68 69 66 66 64 65 71 77 83 90 94 97 99 97 97 98 96
41 53 58 60 56 50 49 53 56 60 60 59 62 64 67 69 64 70 73 67 68 81 76 78 86 92 96 97 98 94 95 97
34 45 57 65 64 70 69 55 63 67 65 60 62 67 67 70 69 69 71 73 79 79 73 76 79 79 85 93 96 97 97 98
33 30 37 48 61 67 66 62 62 68 69 67 71 72 79 81 78 79 79 83 82 72 72 74 70 68 72 73 71 70 80 77
38 33 30 30 36 46 59 62 60 57 66 73 77 72 73 73 75 74 75 76 74 73 76 73 69 66 69 64 64 63 69 72
36 37 36 29 26 30 39 45 48 53 57 60 64 72 71 68 70 77 76 77 82 80 76 69 70 67 68 63 65 69 71 74
39 38 45 43 35 33 34 35 38 42 45 53 61 66 65 76 81 82 84 83 79 74 69 65 61 69 63 67 69 71 73 75
41 37 44 49 42 41 47 47 50 51 59 61 64 68 77 80 84 83 83 80 73 65 63 63 60 62 66 66 68 68 63 57
43 41 45 41 44 42 41 47 52 56 61 65 72 78 80 80 80 76 73 68 62 58 58 59 62 60 61 65 62 55 47 42
24 30 38 39 40 41 40 45 51 59 64 66 68 72 72 69 65 63 56 53 54 56 58 62 63 63 64 62 56 47 43 42

GFSFLT1_prec_cthk_075.txt.gz
RH
48 56 62 71 79 83 84 81 76 73 72 70 70 68 65 63 65 61 60 62 64 68 66 73 74 78 84 76 64 55 50 49
43 47 53 64 70 69 63 53 51 51 49 49 48 51 51 57 56 56 57 60 60 69 68 76 78 82 78 68 60 56 52 48
37 41 41 44 47 50 54 54 48 39 36 36 40 40 43 47 48 53 59 66 66 60 62 71 75 77 77 69 63 59 58 55
35 33 34 34 33 38 42 45 44 41 42 41 41 44 41 43 47 49 54 57 57 60 66 69 73 76 79 81 78 76 74 70
40 41 38 33 29 31 36 40 39 38 37 37 37 38 41 40 41 44 48 57 60 60 61 63 70 76 79 83 87 92 93 86
40 42 43 43 42 39 37 40 42 43 42 42 47 53 50 53 56 54 59 69 71 74 73 77 75 77 82 86 93 94 91 92
42 42 45 45 46 45 44 43 43 47 51 55 61 65 64 57 66 70 69 74 86 85 75 78 85 86 89 89 91 95 94 96
46 48 44 44 45 47 46 45 45 47 53 59 69 69 68 70 66 69 73 73 80 90 85 75 73 76 82 83 90 91 95 95
43 42 49 51 46 43 48 50 51 53 59 66 69 71 67 61 61 61 64 71 75 78 75 72 73 79 81 83 88 90 94 99
42 42 44 45 50 48 45 45 51 53 53 60 64 63 61 60 58 57 61 67 81 81 72 73 82 86 79 82 84 85 87 92
44 44 41 42 46 51 48 55 48 46 49 50 57 60 65 63 62 59 64 83 76 75 76 79 88 77 74 77 80 72 76 86
29 43 49 47 50 51 54 66 68 68 57 59 58 54 59 69 68 72 84 90 83 84 80 84 81 72 75 77 73 66 66 63
29 26 39 50 56 66 61 58 59 60 49 71 75 65 74 93 96 96 87 91 84 73 80 84 76 79 80 72 64 62 64 66
36 30 28 39 46 49 56 59 59 61 60 71 69 84 68 77 91 91 81 77 77 87 83 81 84 81 77 65 69 60 70 67
50 37 32 28 28 39 45 45 46 49 54 64 62 65 66 75 70 67 66 70 79 79 83 82 81 77 68 65 62 67 69 68
44 44 38 33 31 25 26 29 35 40 44 46 49 53 57 66 68 69 74 79 83 81 79 80 76 69 60 65 69 66 67 69
40 40 44 40 39 34 30 30 39 45 44 47 49 55 61 62 66 73 83 86 84 80 78 76 65 61 62 63 64 66 69 69
42 42 46 48 44 37 37 37 36 37 41 47 52 55 59 64 69 73 75 76 78 75 72 63 60 58 61 63 65 65 62 57
36 35 30 33 31 35 41 42 44 44 43 46 53 58 63 65 66 70 71 67 64 59 51 51 53 56 63 64 64 59 54 51

GFSFLT1_prec_cthk_078.txt.gz
RH
48 52 65 76 79 81 79 86 90 89 88 82 83 88 88 82 83 83 78 72 68 62 57 56 60 65 67 74 79 73 58 50
40 48 64 68 73 77 75 72 73 76 77 75 74 74 70 64 69 68 65 64 62 59 61 63 67 70 72 75 74 68 58 56
31 35 42 54 60 61 59 56 56 59 62 60 59 57 56 57 56 59 62 62 60 58 56 60 64 67 70 74 75 71 68 68
28 27 29 35 41 44 46 43 37 40 44 46 45 45 43 43 45 46 49 48 53 54 52 57 59 63 69 76 77 77 77 82
41 36 31 27 29 32 34 35 33 34 32 34 34 34 35 38 41 42 45 46 49 52 54 55 56 61 64 73 78 82 87 86
39 38 37 36 31 31 32 34 33 32 32 32 33 37 41 44 46 44 44 48 55 59 64 66 69 73 77 82 80 84 91 95
44 37 40 39 40 38 34 34 36 37 37 39 43 44 47 46 48 51 51 54 60 70 75 72 66 67 72 78 83 85 82 88
51 43 42 42 39 40 40 40 41 43 46 47 51 56 58 61 62 61 60 58 61 65 77 88 79 74 74 74 79 78 78 86
47 45 48 50 47 42 41 42 43 45 47 47 51 59 60 62 62 62 60 58 60 64 69 81 85 77 72 81 83 77 77 84
43 43 44 52 55 52 45 43 41 41 45 48 50 53 60 62 65 70 57 59 61 67 76 86 87 80 80 88 85 74 75 73
45 46 46 45 49 57 62 59 51 50 45 44 47 50 53 63 73 69 68 64 69 81 91 95 94 92 95 91 77 76 80 76
41 38 38 41 43 49 56 58 59 66 67 67 63 57 61 67 71 78 85 88 92 89 97 94 94 94 91 84 77 81 75 65
36 37 32 30 36 44 55 66 72 74 65 61 62 61 74 80 85 89 87 93 95 84 82 93 94 90 83 83 86 79 70 60
37 43 42 32 27 33 40 44 61 72 70 61 66 66 78 76 75 75 88 89 83 80 87 92 84 78 83 85 83 79 67 60
37 46 45 40 31 26 27 31 36 33 40 46 60 60 62 67 74 76 79 74 73 80 84 84 82 82 83 79 77 70 56 61
39 40 43 42 40 40 38 38 37 34 32 40 52 52 52 58 61 63 65 71 70 76 81 82 82 77 75 75 72 57 60 68
38 38 37 34 37 38 39 39 35 35 39 44 46 43 46 50 56 60 62 66 66 68 72 73 76 77 75 66 59 63 67 64
38 37 35 33 33 33 33 34 36 41 44 48 49 50 49 50 54 61 63 66 69 70 75 82 79 72 64 63 65 61 64 68
38 38 39 38 37 32 31 34 36 39 42 44 46 48 48 51 58 62 64 67 72 75 70 67 65 65 62 60 60 63 62 63

GFSFLT1_prec_cthk_081.txt.gz
RH
45 60 61 73 76 76 76 83 84 92 92 95 86 81 79 79 83 79 75 72 75 76 72 65 61 57 60 63 67 78 81 76
39 53 60 71 81 78 82 87 89 92 91 91 89 84 81 84 83 76 77 77 74 70 66 65 61 59 65 69 76 82 80 74
30 36 58 63 62 66 68 73 78 85 88 90 87 82 81 81 77 75 79 69 65 67 68 66 64 67 70 72 79 81 80 82
37 34 38 50 52 51 50 52 59 65 66 64 67 70 67 67 64 68 66 65 68 64 63 63 65 70 69 71 75 80 84 84
37 41 32 31 36 41 39 36 42 44 51 48 50 53 55 51 50 55 57 57 56 56 59 59 59 63 62 66 75 81 88 84
40 35 34 35 29 27 29 30 32 35 39 42 43 43 46 44 44 45 47 50 51 51 54 55 59 62 65 69 77 82 89 89
42 37 35 33 36 33 29 27 27 29 34 38 39 44 46 49 49 47 49 51 51 52 57 66 72 73 78 73 79 86 87 88
44 41 38 39 36 34 36 35 34 35 36 37 40 43 46 49 50 51 52 52 52 55 61 68 72 77 79 78 81 84 83 81
40 41 43 42 45 41 39 38 38 39 38 40 41 47 50 53 54 54 54 55 56 57 59 65 71 74 77 86 89 81 82 81
38 40 42 45 46 47 46 42 38 39 42 44 45 47 49 53 59 60 63 66 67 63 60 57 62 73 85 96 94 95 90 86
41 43 47 47 48 53 53 54 51 47 46 46 47 49 53 55 56 56 68 76 80 86 85 78 77 89 93 96 97 96 93 83
40 39 38 40 48 52 55 60 65 59 58 66 67 66 61 63 64 65 67 72 82 87 92 91 95 97 95 90 94 94 87 83
36 37 38 36 32 36 43 53 65 71 76 75 69 69 73 74 71 72 79 81 86 87 94 86 76 77 85 89 88 85 86 84
35 38 39 42 37 33 32 39 46 56 73 74 72 72 67 67 65 70 80 88 94 93 90 89 75 75 81 86 89 86 82 79
39 36 38 41 39 38 35 29 29 33 39 42 38 42 46 61 63 62 62 72 84 84 80 78 74 75 79 90 83 79 81 84
42 38 38 37 40 36 33 37 34 34 34 33 33 36 46 58 62 65 62 68 69 74 74 72 70 75 78 80 83 86 85 82
39 39 40 39 37 36 35 36 36 34 34 34 40 49 56 58 59 59 60 60 63 65 66 69 72 76 79 89 93 86 83 72
38 38 38 37 37 37 36 36 34 35 38 44 43 47 50 52 54 54 54 56 58 62 68 72 75 84 95 88 83 77 72 67
38 39 39 38 36 36 39 40 41 40 42 47 49 53 52 51 52 54 54 56 63 72 74 73 84 78 74 72 72 69 68 71